Wind_Speed
11 11 11 10 11 11 11 11 11 11 11 11 11 12 11 11 10 10 10 9 10 10 10 10 10 9 9 9 9 9 8 8 8 8 8 8 8 8 8 8 8 8 8
11 12 12 12 12 12 12 11 11 11 11 11 12 12 11 10 10 10 10 11 11 11 11 11 11 11 10 10 10 10 9 9 9 9 8 9 9 9 9 9 9 8 9
11 12 12 13 13 12 11 11 11 11 12 12 11 11 11 10 10 11 11 11 12 12 12 12 12 12 11 11 11 10 10 10 10 9 9 9 9 10 10 9 9 9 9
12 13 13 13 13 12 12 11 11 11 11 12 11 11 11 11 11 11 12 12 12 13 13 13 13 13 13 12 12 12 11 11 11 10 10 9 9 9 10 10 10 10 9
13 14 14 14 14 14 13 12 12 11 11 12 12 12 12 12 12 13 14 14 14 14 14 14 14 14 14 14 13 13 13 12 12 12 11 11 10 10 10 10 10 10 10
15 15 15 15 14 14 13 13 13 12 12 12 12 12 13 12 12 13 14 14 15 14 14 15 15 15 14 14 14 14 14 13 13 13 12 12 11 11 11 11 11 11 11
16 15 14 14 14 13 13 13 13 13 12 12 12 13 13 14 14 14 15 15 15 16 16 16 16 16 15 15 15 15 15 14 14 14 13 13 13 12 12 12 12 11 12
16 15 15 15 14 13 13 13 13 13 13 13 13 13 14 14 14 15 15 16 16 17 17 17 17 17 16 16 16 16 16 15 15 15 15 14 13 13 13 13 12 12 12
16 16 16 15 14 14 14 14 14 13 13 14 13 13 14 14 15 15 16 16 17 17 18 18 18 18 17 17 17 17 17 17 16 16 15 14 14 14 14 14 13 13 12
16 16 16 15 15 14 14 15 15 14 14 14 14 14 14 14 15 15 16 17 17 18 18 19 19 19 19 19 19 18 16 17 17 17 16 15 15 16 15 14 14 14 14
15 15 15 15 15 15 14 14 14 15 14 14 15 15 15 15 15 16 17 17 18 18 19 19 20 20 20 20 19 19 19 18 18 19 18 17 16 17 17 16 15 16 16
14 14 14 14 15 14 13 13 14 14 15 15 15 15 16 16 16 17 16 17 18 19 19 20 21 21 21 20 21 21 20 20 19 19 19 19 18 17 18 18 17 17 17
14 13 14 14 14 13 13 13 14 15 15 15 15 15 16 16 17 17 17 18 19 20 21 22 22 22 22 22 22 22 22 22 22 21 20 20 19 18 19 19 18 18 18
14 14 14 14 14 13 13 14 15 15 15 15 16 16 16 16 16 16 17 18 19 21 22 22 23 23 24 23 22 22 22 22 22 23 22 21 21 20 20 20 19 19 19
14 16 15 15 15 14 14 15 15 16 16 15 15 16 16 17 17 17 17 18 19 20 22 22 23 23 24 24 23 23 24 24 23 24 23 23 23 23 22 21 21 21 21
15 16 16 16 15 15 16 16 16 16 16 16 16 16 17 17 17 18 18 18 18 19 21 22 24 24 25 26 25 25 25 25 25 24 25 25 23 23 22 22 22 22 22
14 15 15 16 15 16 16 15 14 15 15 15 15 16 17 17 17 18 18 18 18 19 20 22 23 24 25 26 26 26 26 26 25 25 25 25 24 24 24 23 23 23 24
16 16 15 15 14 15 14 14 14 14 15 15 16 17 17 18 18 18 19 18 18 19 20 21 23 24 25 26 26 26 26 27 26 26 26 25 26 25 25 24 24 24 24
16 16 15 14 14 15 15 15 15 15 16 16 16 17 18 18 18 19 20 19 19 19 20 21 22 23 24 25 26 26 26 27 26 26 26 26 27 27 26 26 25 24 25
16 15 14 14 16 16 16 15 15 15 16 16 16 17 19 18 19 19 20 19 19 19 20 21 22 23 24 24 25 25 26 27 27 27 27 27 27 28 27 27 26 26 25
16 15 15 15 16 17 17 16 16 16 16 16 17 17 18 19 20 20 19 19 19 19 20 21 21 22 22 22 23 24 25 26 27 27 28 28 28 29 29 28 27 27 26
16 16 15 16 17 17 17 17 17 17 16 17 17 17 19 20 20 19 19 20 20 20 20 21 22 22 22 22 22 23 24 25 26 27 28 29 29 29 29 27 27 27 27
16 15 16 17 18 18 18 18 17 17 18 18 19 19 19 19 18 19 19 20 20 21 21 21 22 22 22 23 23 24 24 24 26 26 26 28 29 29 28 27 27 27 28
17 16 16 17 18 18 19 19 18 18 19 19 19 19 18 17 18 18 19 19 19 20 20 21 21 22 23 23 23 24 24 24 25 26 27 27 28 29 29 28 28 28 28
17 17 17 18 18 18 19 19 19 19 19 19 18 17 17 17 18 18 17 19 20 21 20 21 21 22 23 24 24 24 25 25 25 26 27 27 28 29 30 30 29 29 30
18 17 18 19 19 20 20 20 19 19 19 18 18 18 18 18 18 18 19 19 20 21 21 21 21 21 22 22 24 25 26 26 25 27 28 29 29 29 30 30 30 31 31
Wind_Direction
319 319 319 314 310 308 306 303 299 298 294 289 287 287 284 279 274 269 263 259 254 251 248 247 247 245 246 247 245 243 243 242 241 240 236 234 233 225 222 223 228 225 227
315 316 313 306 305 305 304 302 300 297 292 287 284 284 281 277 271 266 262 257 255 253 250 249 249 245 244 247 248 247 245 242 243 242 239 238 239 236 234 234 237 234 232
314 316 314 306 305 303 301 302 301 299 293 287 281 280 277 275 272 266 262 259 256 254 253 252 251 247 245 246 249 248 245 243 243 244 244 245 244 242 238 238 238 239 239
318 317 316 309 305 302 298 295 296 296 293 285 279 276 273 274 272 266 263 261 259 256 255 254 252 251 249 249 249 248 247 245 246 246 247 249 248 245 242 243 243 243 240
315 314 314 314 308 302 295 290 290 289 289 283 276 272 271 273 270 266 264 262 259 257 255 255 253 252 252 251 249 248 248 248 248 246 248 250 250 248 248 246 244 240 237
312 311 308 308 307 304 299 292 289 287 286 281 274 271 270 272 270 268 264 262 260 257 253 253 253 251 253 253 249 248 249 251 249 248 248 248 250 249 250 248 244 241 238
308 307 307 307 306 300 295 291 285 284 284 280 275 272 272 271 270 268 265 262 260 257 255 254 253 251 252 251 250 248 249 249 249 250 247 246 247 249 248 249 244 241 238
306 303 303 304 300 298 294 287 282 283 283 279 274 271 271 269 269 268 264 262 258 256 255 254 253 252 251 250 250 250 248 246 247 246 245 244 245 247 248 247 245 243 240
306 303 305 302 298 294 291 289 283 282 284 279 275 272 272 272 270 267 263 259 256 254 254 253 251 252 250 249 249 248 248 247 245 245 245 245 245 247 248 247 248 247 244
308 307 306 303 299 293 290 289 286 283 285 279 274 272 273 273 271 269 264 258 256 255 253 253 252 254 253 252 250 248 250 247 244 243 246 247 247 246 247 247 248 250 248
309 310 306 303 303 292 287 287 288 284 286 282 275 271 272 270 268 267 265 260 258 255 254 255 256 257 257 254 251 250 251 249 245 245 246 247 248 247 246 245 247 250 248
311 312 309 305 304 294 287 287 287 285 286 284 281 275 271 269 266 265 263 260 258 257 257 257 258 258 257 255 251 251 252 250 250 249 247 248 251 249 247 245 247 248 249
312 311 310 305 303 299 297 295 292 290 287 286 286 280 274 271 267 266 264 261 259 258 258 259 258 258 256 255 253 252 251 249 249 251 250 249 251 250 248 247 248 249 250
315 316 315 313 310 301 301 301 297 294 289 288 284 278 274 273 271 268 266 264 261 260 258 258 259 259 256 254 252 251 250 249 248 250 250 248 250 250 249 249 250 251 250
315 317 317 316 313 307 302 301 298 295 292 289 282 276 276 277 274 271 268 267 264 264 261 259 259 258 257 255 253 251 250 250 250 251 251 251 251 251 250 249 250 250 249
317 317 317 317 315 309 302 299 295 292 289 285 282 279 278 279 275 271 270 270 270 266 262 261 260 260 259 255 255 253 252 252 252 252 252 251 250 250 250 251 251 250 250
320 319 317 318 315 312 307 300 297 293 289 283 282 282 280 278 277 274 273 271 270 268 266 264 262 261 260 257 256 255 254 253 253 252 252 249 248 250 251 251 251 252 250
322 321 321 323 322 319 313 306 302 298 296 291 287 287 284 280 278 277 275 277 274 272 270 267 264 263 260 258 257 255 254 252 251 251 250 248 248 249 250 251 250 252 251
322 321 319 320 323 322 319 312 306 300 300 296 291 286 286 283 280 278 279 279 276 276 274 271 268 263 260 258 256 256 253 251 250 249 248 248 248 247 249 249 250 252 251
324 321 318 312 315 317 318 315 310 305 301 295 291 287 286 285 283 279 280 279 278 277 276 274 269 265 262 261 258 255 252 250 249 248 249 249 249 248 248 248 249 250 251
326 324 320 319 318 316 315 312 309 308 305 297 292 289 288 285 282 280 279 282 281 278 276 275 271 267 265 262 260 255 251 250 249 249 249 249 249 248 248 247 248 250 249
326 324 321 320 319 317 314 312 309 308 307 302 296 292 290 288 284 285 285 283 282 280 277 277 273 269 265 262 260 256 253 251 249 249 249 248 249 249 249 247 247 248 248
324 322 322 323 320 317 314 313 311 309 308 305 302 300 298 294 289 290 288 287 284 282 280 278 275 269 265 263 260 258 255 252 252 250 249 248 248 249 249 249 248 248 249
326 327 326 324 323 321 318 315 312 310 307 306 306 304 301 297 293 291 289 287 287 286 283 281 276 271 268 266 263 260 258 255 252 249 249 250 251 250 248 249 250 249 250
325 326 326 326 325 323 321 318 312 309 307 306 304 304 304 303 300 297 293 290 289 288 285 283 279 275 271 268 266 263 261 256 253 251 250 251 252 252 250 249 252 250 250
326 326 326 328 327 326 323 321 317 312 309 306 303 303 302 300 299 297 296 293 292 290 287 284 281 278 275 271 268 264 262 258 253 254 252 253 253 253 252 252 253 253 252
Height
5887 5885 5885 5884 5883 5882 5881 5881 5880 5880 5879 5879 5878 5877 5877 5876 5876 5876 5876 5876 5876 5876 5876 5876 5876 5876 5877 5877 5877 5877 5877 5877 5877 5877 5877 5877 5877 5878 5878 5878 5879 5879 5879
5885 5884 5883 5882 5882 5881 5880 5879 5878 5878 5877 5877 5876 5876 5875 5874 5874 5874 5874 5874 5874 5874 5874 5874 5874 5875 5875 5875 5876 5876 5876 5876 5876 5876 5876 5876 5876 5876 5876 5877 5877 5878 5878
5883 5882 5881 5880 5879 5878 5877 5877 5876 5875 5875 5874 5874 5873 5873 5872 5872 5872 5872 5872 5872 5872 5872 5872 5873 5873 5873 5874 5874 5874 5874 5874 5874 5875 5875 5875 5875 5875 5875 5875 5876 5876 5877
5881 5880 5879 5878 5876 5876 5875 5874 5873 5873 5872 5871 5871 5871 5871 5870 5870 5870 5870 5870 5870 5870 5870 5870 5870 5871 5871 5871 5872 5872 5872 5873 5873 5873 5873 5873 5873 5873 5874 5874 5874 5874 5875
5879 5878 5877 5875 5874 5873 5872 5872 5871 5870 5870 5869 5869 5868 5868 5868 5868 5867 5868 5868 5868 5868 5868 5868 5868 5869 5869 5869 5869 5870 5870 5870 5871 5871 5871 5871 5871 5871 5872 5872 5873 5873 5873
5877 5876 5875 5873 5872 5871 5869 5869 5868 5867 5867 5866 5866 5865 5865 5865 5865 5865 5865 5865 5865 5865 5865 5865 5866 5866 5866 5867 5867 5867 5867 5868 5868 5869 5869 5869 5869 5869 5870 5870 5871 5871 5872
5874 5873 5871 5870 5869 5868 5867 5866 5865 5864 5864 5863 5863 5862 5862 5862 5862 5862 5862 5862 5862 5862 5862 5862 5863 5863 5863 5864 5864 5864 5864 5865 5866 5866 5866 5867 5867 5867 5868 5868 5868 5869 5870
5871 5870 5868 5866 5866 5864 5863 5863 5862 5861 5861 5860 5859 5859 5859 5858 5858 5858 5859 5859 5859 5859 5859 5859 5859 5859 5860 5860 5861 5861 5861 5862 5862 5863 5864 5864 5864 5865 5865 5866 5866 5867 5867
5868 5866 5864 5863 5862 5861 5860 5859 5858 5858 5857 5856 5856 5855 5855 5855 5855 5855 5855 5855 5855 5856 5856 5856 5856 5856 5857 5857 5857 5858 5858 5859 5859 5860 5861 5861 5861 5862 5862 5863 5864 5864 5865
5865 5863 5861 5860 5859 5857 5856 5856 5855 5854 5853 5853 5852 5852 5852 5851 5851 5851 5851 5851 5851 5852 5852 5852 5853 5853 5853 5853 5854 5854 5855 5856 5856 5857 5858 5858 5858 5859 5859 5860 5861 5862 5862
5861 5860 5858 5856 5855 5853 5852 5852 5851 5850 5849 5849 5848 5848 5847 5847 5847 5847 5847 5847 5847 5848 5848 5848 5849 5849 5849 5850 5851 5851 5852 5852 5853 5854 5854 5855 5855 5856 5856 5857 5858 5859 5859
5859 5857 5855 5853 5852 5850 5849 5848 5847 5846 5846 5845 5845 5844 5843 5843 5843 5842 5842 5843 5843 5844 5844 5845 5845 5845 5846 5846 5847 5848 5848 5849 5850 5850 5851 5851 5852 5852 5853 5854 5854 5855 5856
5857 5855 5853 5850 5849 5847 5845 5844 5844 5843 5842 5842 5841 5840 5840 5839 5839 5838 5838 5838 5839 5839 5840 5840 5840 5841 5842 5842 5843 5843 5844 5845 5845 5846 5847 5848 5848 5848 5849 5850 5851 5852 5852
5854 5852 5850 5848 5845 5843 5841 5841 5840 5839 5838 5837 5837 5836 5836 5835 5835 5834 5834 5834 5835 5835 5835 5835 5835 5836 5836 5837 5838 5838 5839 5840 5841 5842 5843 5843 5844 5844 5845 5845 5846 5847 5848
5851 5849 5847 5845 5842 5839 5838 5837 5836 5835 5834 5833 5832 5832 5831 5831 5831 5830 5830 5830 5830 5830 5830 5830 5830 5830 5831 5831 5832 5833 5834 5835 5835 5836 5838 5839 5839 5839 5840 5841 5842 5843 5843
5849 5846 5844 5841 5838 5836 5835 5833 5832 5830 5829 5828 5828 5827 5826 5826 5826 5825 5825 5825 5825 5825 5824 5824 5824 5825 5825 5826 5826 5827 5828 5829 5830 5831 5832 5833 5834 5834 5835 5836 5837 5838 5839
5846 5843 5841 5838 5836 5833 5831 5830 5828 5827 5825 5824 5823 5822 5821 5821 5821 5821 5821 5820 5820 5820 5819 5819 5819 5819 5819 5819 5820 5821 5822 5823 5824 5825 5826 5827 5828 5829 5829 5830 5831 5832 5833
5843 5840 5837 5835 5833 5830 5828 5826 5825 5823 5822 5820 5819 5818 5817 5817 5816 5815 5815 5815 5815 5814 5814 5813 5813 5813 5812 5813 5813 5814 5815 5816 5817 5818 5819 5821 5822 5823 5824 5824 5825 5826 5827
5840 5837 5835 5832 5830 5827 5825 5823 5821 5819 5818 5816 5815 5814 5813 5811 5811 5810 5810 5809 5809 5808 5808 5807 5806 5806 5805 5805 5806 5807 5807 5809 5810 5811 5812 5813 5815 5816 5818 5819 5820 5820 5821
5836 5834 5831 5829 5826 5824 5822 5819 5817 5815 5813 5812 5810 5809 5808 5806 5806 5805 5804 5803 5803 5802 5801 5800 5800 5799 5799 5799 5799 5799 5800 5801 5803 5804 5805 5806 5807 5809 5811 5812 5813 5814 5815
5833 5831 5828 5826 5823 5820 5818 5816 5813 5811 5810 5808 5806 5804 5803 5802 5800 5799 5798 5797 5796 5796 5795 5794 5793 5792 5792 5792 5792 5792 5793 5794 5796 5797 5798 5799 5801 5802 5803 5805 5806 5808 5808
5830 5828 5825 5822 5820 5817 5814 5811 5809 5807 5805 5803 5801 5799 5798 5796 5794 5793 5792 5791 5790 5789 5788 5787 5786 5785 5785 5785 5785 5786 5787 5788 5789 5790 5791 5792 5793 5795 5796 5797 5799 5800 5802
5829 5825 5823 5819 5816 5813 5810 5807 5805 5803 5800 5798 5796 5794 5792 5790 5789 5787 5786 5785 5784 5783 5782 5780 5779 5779 5779 5779 5778 5779 5780 5781 5782 5783 5784 5785 5786 5787 5788 5790 5791 5793 5794
5826 5823 5820 5816 5813 5810 5806 5803 5801 5798 5796 5794 5791 5789 5787 5785 5784 5782 5780 5779 5778 5776 5775 5774 5772 5772 5772 5772 5771 5771 5772 5773 5774 5775 5776 5777 5778 5779 5781 5782 5784 5786 5787
5824 5820 5816 5813 5809 5806 5802 5799 5796 5794 5792 5789 5787 5785 5783 5781 5779 5776 5775 5773 5772 5770 5769 5767 5766 5765 5764 5764 5764 5764 5764 5765 5766 5767 5769 5770 5770 5772 5773 5774 5776 5777 5779
5820 5816 5812 5809 5805 5802 5798 5795 5792 5790 5787 5785 5783 5780 5778 5776 5774 5771 5770 5768 5766 5764 5762 5761 5759 5758 5757 5757 5756 5756 5756 5757 5758 5759 5760 5761 5762 5763 5764 5766 5767 5769 5770